QPF
0.01 0.00 0.00 0.00 0.00 0.00 0.00 0.01 0.02 0.01 0.02 0.03 0.02 0.02 0.01 0.02 0.01 0.00 0.01 0.01 0.02 0.03 0.04 0.04 0.02 0.01 0.01 0.01 0.02 0.01 0.01 0.01 0.01 0.01 0.01 0.01 0.01 0.00 0.00 0.01 0.00 0.00 0.01
0.00 0.01 0.01 0.01 0.00 0.00 0.00 0.01 0.01 0.02 0.03 0.03 0.03 0.02 0.02 0.02 0.02 0.01 0.01 0.01 0.02 0.02 0.03 0.04 0.03 0.01 0.01 0.01 0.01 0.01 0.01 0.01 0.01 0.01 0.00 0.01 0.00 0.00 0.00 0.01 0.01 0.00 0.00
0.00 0.01 0.02 0.02 0.01 0.01 0.01 0.01 0.01 0.02 0.02 0.03 0.03 0.03 0.03 0.03 0.02 0.01 0.01 0.00 0.01 0.02 0.02 0.02 0.02 0.01 0.02 0.01 0.01 0.01 0.01 0.01 0.01 0.01 0.01 0.00 0.00 0.00 0.00 0.00 0.00 0.00 0.00
0.03 0.03 0.03 0.02 0.02 0.02 0.02 0.02 0.03 0.03 0.03 0.02 0.04 0.04 0.03 0.03 0.02 0.01 0.01 0.00 0.01 0.01 0.01 0.02 0.02 0.02 0.02 0.02 0.02 0.02 0.02 0.01 0.01 0.01 0.01 0.01 0.01 0.00 0.00 0.00 0.00 0.00 0.00
0.07 0.05 0.04 0.04 0.04 0.03 0.03 0.04 0.04 0.04 0.02 0.03 0.04 0.05 0.05 0.03 0.02 0.01 0.01 0.01 0.00 0.00 0.00 0.01 0.03 0.03 0.03 0.04 0.04 0.04 0.03 0.03 0.02 0.01 0.01 0.01 0.01 0.01 0.01 0.00 0.00 0.00 0.00
0.08 0.07 0.06 0.05 0.04 0.04 0.04 0.04 0.06 0.05 0.03 0.04 0.05 0.07 0.05 0.04 0.02 0.02 0.01 0.01 0.01 0.01 0.00 0.00 0.01 0.02 0.03 0.04 0.05 0.06 0.06 0.06 0.04 0.02 0.01 0.01 0.02 0.02 0.01 0.01 0.01 0.01 0.01
0.09 0.08 0.07 0.05 0.05 0.05 0.04 0.06 0.07 0.06 0.04 0.04 0.04 0.05 0.04 0.04 0.03 0.03 0.01 0.01 0.01 0.00 0.00 0.00 0.01 0.01 0.02 0.02 0.03 0.04 0.05 0.08 0.08 0.05 0.03 0.03 0.02 0.02 0.01 0.01 0.01 0.01 0.02
0.08 0.07 0.06 0.05 0.05 0.05 0.05 0.04 0.04 0.04 0.04 0.04 0.03 0.05 0.04 0.02 0.02 0.02 0.02 0.01 0.01 0.01 0.01 0.00 0.00 0.01 0.01 0.01 0.01 0.02 0.04 0.07 0.09 0.08 0.06 0.05 0.04 0.03 0.03 0.02 0.02 0.02 0.02
0.08 0.08 0.06 0.05 0.05 0.06 0.06 0.04 0.04 0.04 0.03 0.04 0.04 0.04 0.02 0.01 0.00 0.01 0.01 0.01 0.01 0.02 0.01 0.01 0.00 0.01 0.01 0.01 0.01 0.03 0.03 0.04 0.06 0.08 0.09 0.07 0.05 0.04 0.04 0.04 0.04 0.04 0.03
0.14 0.12 0.11 0.08 0.08 0.07 0.06 0.05 0.05 0.05 0.04 0.04 0.03 0.03 0.02 0.01 0.01 0.00 0.00 0.00 0.00 0.01 0.02 0.02 0.01 0.02 0.01 0.01 0.01 0.02 0.01 0.01 0.02 0.04 0.08 0.07 0.06 0.05 0.05 0.05 0.05 0.04 0.03
0.13 0.13 0.15 0.14 0.10 0.08 0.06 0.06 0.06 0.06 0.06 0.04 0.03 0.03 0.03 0.03 0.01 0.01 0.00 0.00 0.00 0.01 0.01 0.01 0.02 0.04 0.03 0.01 0.01 0.02 0.02 0.02 0.02 0.02 0.04 0.06 0.07 0.06 0.05 0.05 0.04 0.03 0.03
0.13 0.12 0.13 0.13 0.10 0.07 0.07 0.06 0.06 0.07 0.06 0.05 0.05 0.04 0.03 0.03 0.01 0.01 0.01 0.00 0.01 0.01 0.01 0.01 0.02 0.04 0.04 0.02 0.01 0.02 0.02 0.03 0.02 0.03 0.02 0.03 0.04 0.05 0.05 0.05 0.05 0.04 0.04
0.09 0.07 0.08 0.09 0.08 0.07 0.05 0.05 0.05 0.06 0.06 0.05 0.04 0.04 0.04 0.03 0.02 0.01 0.01 0.00 0.01 0.00 0.01 0.01 0.01 0.02 0.02 0.02 0.02 0.03 0.03 0.03 0.03 0.02 0.02 0.01 0.01 0.02 0.03 0.04 0.04 0.04 0.05
0.08 0.07 0.08 0.09 0.09 0.10 0.09 0.08 0.07 0.05 0.05 0.05 0.06 0.06 0.04 0.02 0.02 0.02 0.02 0.02 0.01 0.01 0.00 0.00 0.00 0.01 0.02 0.02 0.02 0.02 0.03 0.03 0.03 0.02 0.02 0.01 0.02 0.01 0.01 0.02 0.03 0.03 0.04
0.08 0.08 0.07 0.07 0.08 0.09 0.10 0.12 0.11 0.07 0.06 0.06 0.05 0.05 0.04 0.02 0.02 0.03 0.04 0.03 0.03 0.02 0.01 0.01 0.01 0.01 0.02 0.02 0.02 0.02 0.02 0.03 0.03 0.03 0.03 0.04 0.04 0.03 0.03 0.04 0.04 0.03 0.03
0.08 0.09 0.09 0.08 0.10 0.09 0.09 0.09 0.07 0.05 0.05 0.04 0.04 0.04 0.03 0.03 0.04 0.04 0.04 0.05 0.05 0.04 0.02 0.01 0.02 0.02 0.02 0.03 0.03 0.02 0.02 0.03 0.04 0.05 0.05 0.05 0.05 0.05 0.05 0.05 0.05 0.04 0.04
0.05 0.05 0.06 0.07 0.09 0.09 0.08 0.07 0.07 0.06 0.04 0.03 0.04 0.03 0.03 0.04 0.05 0.05 0.06 0.06 0.06 0.07 0.06 0.04 0.03 0.03 0.03 0.03 0.04 0.04 0.04 0.05 0.04 0.05 0.05 0.05 0.05 0.05 0.05 0.05 0.06 0.06 0.05
0.03 0.03 0.04 0.05 0.06 0.07 0.07 0.06 0.05 0.05 0.04 0.03 0.04 0.05 0.05 0.06 0.07 0.07 0.07 0.07 0.07 0.07 0.07 0.04 0.04 0.05 0.05 0.06 0.06 0.06 0.05 0.05 0.04 0.05 0.05 0.05 0.05 0.05 0.05 0.06 0.06 0.06 0.06
0.04 0.04 0.04 0.05 0.05 0.06 0.07 0.07 0.06 0.05 0.04 0.04 0.05 0.05 0.06 0.08 0.09 0.08 0.08 0.08 0.07 0.08 0.07 0.05 0.05 0.06 0.06 0.06 0.06 0.05 0.06 0.06 0.05 0.05 0.05 0.05 0.06 0.06 0.06 0.06 0.08 0.10 0.10
0.06 0.06 0.07 0.08 0.09 0.10 0.10 0.11 0.10 0.08 0.08 0.09 0.08 0.08 0.08 0.08 0.08 0.07 0.07 0.08 0.10 0.10 0.09 0.09 0.08 0.08 0.09 0.10 0.09 0.07 0.06 0.06 0.06 0.06 0.06 0.06 0.06 0.07 0.07 0.08 0.09 0.09 0.10
0.05 0.05 0.07 0.08 0.10 0.12 0.14 0.17 0.17 0.15 0.13 0.12 0.11 0.11 0.13 0.13 0.12 0.11 0.09 0.10 0.13 0.15 0.14 0.13 0.12 0.10 0.09 0.09 0.09 0.07 0.06 0.07 0.08 0.08 0.08 0.08 0.08 0.08 0.08 0.09 0.09 0.08 0.07
0.07 0.06 0.05 0.05 0.06 0.07 0.10 0.12 0.15 0.15 0.14 0.13 0.13 0.13 0.14 0.14 0.13 0.13 0.13 0.13 0.13 0.15 0.17 0.16 0.13 0.11 0.09 0.09 0.09 0.09 0.10 0.11 0.10 0.09 0.08 0.08 0.07 0.07 0.06 0.07 0.08 0.08 0.08
0.07 0.07 0.06 0.06 0.06 0.07 0.08 0.09 0.09 0.08 0.10 0.10 0.09 0.09 0.09 0.11 0.15 0.17 0.19 0.20 0.18 0.19 0.18 0.16 0.15 0.14 0.13 0.13 0.13 0.13 0.13 0.12 0.10 0.09 0.08 0.08 0.06 0.06 0.06 0.06 0.06 0.06 0.06
0.07 0.06 0.07 0.06 0.06 0.06 0.06 0.07 0.07 0.06 0.05 0.05 0.06 0.07 0.08 0.08 0.10 0.13 0.14 0.16 0.18 0.18 0.17 0.13 0.11 0.11 0.11 0.12 0.13 0.13 0.10 0.07 0.06 0.06 0.05 0.06 0.05 0.05 0.05 0.04 0.04 0.03 0.04
0.10 0.08 0.06 0.05 0.05 0.05 0.06 0.05 0.06 0.05 0.04 0.03 0.03 0.03 0.03 0.03 0.05 0.07 0.08 0.09 0.09 0.08 0.07 0.06 0.05 0.04 0.04 0.04 0.04 0.05 0.06 0.07 0.07 0.06 0.05 0.06 0.07 0.07 0.07 0.06 0.05 0.04 0.04
0.11 0.10 0.08 0.07 0.06 0.07 0.08 0.07 0.07 0.05 0.04 0.04 0.04 0.03 0.03 0.04 0.04 0.06 0.06 0.06 0.04 0.03 0.02 0.02 0.02 0.02 0.01 0.02 0.02 0.03 0.04 0.06 0.08 0.09 0.08 0.09 0.10 0.10 0.11 0.10 0.08 0.06 0.05
MSLP
1018.28 1018.45 1018.55 1018.61 1018.65 1018.70 1018.77 1018.87 1018.99 1019.12 1019.25 1019.38 1019.49 1019.60 1019.72 1019.86 1020.03 1020.24 1020.48 1020.72 1020.97 1021.18 1021.37 1021.52 1021.63 1021.72 1021.80 1021.88 1021.97 1022.08 1022.20 1022.32 1022.45 1022.57 1022.69 1022.79 1022.90 1023.00 1023.09 1023.17 1023.24 1023.30 1023.34
1018.31 1018.48 1018.60 1018.66 1018.71 1018.76 1018.83 1018.93 1019.06 1019.20 1019.35 1019.50 1019.63 1019.76 1019.89 1020.02 1020.16 1020.33 1020.52 1020.73 1020.94 1021.14 1021.33 1021.50 1021.64 1021.77 1021.87 1021.97 1022.07 1022.16 1022.26 1022.36 1022.47 1022.59 1022.71 1022.84 1022.97 1023.10 1023.23 1023.34 1023.42 1023.49 1023.53
1018.21 1018.40 1018.54 1018.64 1018.73 1018.81 1018.92 1019.04 1019.19 1019.36 1019.54 1019.71 1019.87 1020.01 1020.14 1020.25 1020.36 1020.48 1020.61 1020.75 1020.91 1021.07 1021.24 1021.41 1021.58 1021.72 1021.86 1021.97 1022.07 1022.16 1022.25 1022.34 1022.43 1022.54 1022.67 1022.81 1022.97 1023.12 1023.28 1023.41 1023.52 1023.60 1023.64
1017.97 1018.19 1018.38 1018.54 1018.69 1018.84 1019.00 1019.17 1019.35 1019.56 1019.76 1019.96 1020.15 1020.30 1020.43 1020.52 1020.59 1020.65 1020.71 1020.78 1020.87 1020.98 1021.11 1021.27 1021.43 1021.59 1021.74 1021.87 1021.98 1022.07 1022.15 1022.23 1022.32 1022.42 1022.55 1022.70 1022.87 1023.04 1023.21 1023.36 1023.48 1023.57 1023.63
1017.63 1017.88 1018.13 1018.36 1018.59 1018.81 1019.03 1019.25 1019.48 1019.72 1019.95 1020.18 1020.38 1020.55 1020.68 1020.76 1020.80 1020.81 1020.80 1020.79 1020.81 1020.86 1020.94 1021.06 1021.20 1021.36 1021.52 1021.66 1021.78 1021.88 1021.96 1022.03 1022.12 1022.22 1022.34 1022.49 1022.66 1022.84 1023.01 1023.16 1023.29 1023.38 1023.44
1017.22 1017.49 1017.79 1018.10 1018.40 1018.69 1018.97 1019.24 1019.50 1019.77 1020.02 1020.27 1020.49 1020.68 1020.81 1020.89 1020.91 1020.89 1020.83 1020.76 1020.71 1020.69 1020.72 1020.79 1020.90 1021.04 1021.19 1021.34 1021.46 1021.57 1021.65 1021.73 1021.82 1021.92 1022.04 1022.19 1022.35 1022.52 1022.68 1022.83 1022.94 1023.03 1023.10
1016.77 1017.06 1017.39 1017.74 1018.10 1018.45 1018.77 1019.07 1019.36 1019.64 1019.91 1020.17 1020.41 1020.61 1020.77 1020.87 1020.89 1020.86 1020.78 1020.67 1020.57 1020.49 1020.46 1020.48 1020.54 1020.65 1020.78 1020.91 1021.03 1021.14 1021.23 1021.32 1021.42 1021.52 1021.65 1021.79 1021.95 1022.11 1022.25 1022.38 1022.48 1022.56 1022.62
1016.33 1016.60 1016.94 1017.32 1017.70 1018.07 1018.42 1018.74 1019.03 1019.31 1019.59 1019.86 1020.12 1020.35 1020.54 1020.67 1020.73 1020.71 1020.63 1020.51 1020.38 1020.26 1020.17 1020.13 1020.14 1020.20 1020.29 1020.40 1020.50 1020.61 1020.71 1020.81 1020.92 1021.04 1021.18 1021.33 1021.48 1021.63 1021.76 1021.87 1021.95 1022.01 1022.05
1015.90 1016.13 1016.46 1016.83 1017.21 1017.59 1017.93 1018.25 1018.53 1018.81 1019.08 1019.36 1019.65 1019.92 1020.15 1020.33 1020.44 1020.46 1020.41 1020.30 1020.16 1020.01 1019.88 1019.78 1019.73 1019.74 1019.77 1019.84 1019.92 1020.01 1020.11 1020.22 1020.34 1020.48 1020.64 1020.81 1020.97 1021.12 1021.25 1021.34 1021.40 1021.44 1021.47
1015.48 1015.67 1015.95 1016.29 1016.65 1017.01 1017.34 1017.64 1017.92 1018.19 1018.46 1018.75 1019.06 1019.37 1019.65 1019.89 1020.06 1020.14 1020.14 1020.06 1019.92 1019.76 1019.60 1019.46 1019.36 1019.30 1019.27 1019.29 1019.33 1019.39 1019.48 1019.59 1019.73 1019.89 1020.07 1020.26 1020.45 1020.61 1020.75 1020.84 1020.89 1020.91 1020.91
1015.06 1015.19 1015.42 1015.72 1016.05 1016.38 1016.70 1016.98 1017.25 1017.51 1017.79 1018.09 1018.42 1018.77 1019.11 1019.40 1019.64 1019.78 1019.84 1019.80 1019.70 1019.54 1019.37 1019.20 1019.05 1018.93 1018.85 1018.80 1018.79 1018.82 1018.88 1018.98 1019.13 1019.31 1019.51 1019.73 1019.95 1020.14 1020.28 1020.38 1020.42 1020.43 1020.40
1014.62 1014.69 1014.87 1015.13 1015.42 1015.73 1016.02 1016.30 1016.56 1016.82 1017.11 1017.43 1017.78 1018.16 1018.54 1018.89 1019.18 1019.39 1019.51 1019.53 1019.47 1019.35 1019.19 1019.01 1018.84 1018.68 1018.55 1018.45 1018.39 1018.36 1018.39 1018.47 1018.60 1018.79 1019.01 1019.25 1019.49 1019.71 1019.88 1019.98 1020.03 1020.02 1019.97
1014.14 1014.17 1014.30 1014.51 1014.78 1015.06 1015.34 1015.61 1015.87 1016.14 1016.44 1016.77 1017.14 1017.54 1017.95 1018.34 1018.68 1018.95 1019.13 1019.22 1019.22 1019.16 1019.04 1018.89 1018.72 1018.56 1018.40 1018.26 1018.15 1018.08 1018.06 1018.10 1018.21 1018.38 1018.61 1018.86 1019.12 1019.35 1019.54 1019.66 1019.70 1019.68 1019.61
1013.64 1013.62 1013.72 1013.89 1014.13 1014.39 1014.65 1014.92 1015.18 1015.46 1015.76 1016.09 1016.47 1016.88 1017.30 1017.71 1018.09 1018.41 1018.65 1018.82 1018.90 1018.92 1018.88 1018.80 1018.68 1018.54 1018.39 1018.24 1018.10 1017.99 1017.93 1017.93 1018.00 1018.14 1018.34 1018.59 1018.84 1019.08 1019.28 1019.41 1019.45 1019.42 1019.33
1013.14 1013.10 1013.15 1013.29 1013.48 1013.71 1013.96 1014.21 1014.47 1014.74 1015.03 1015.36 1015.72 1016.12 1016.54 1016.96 1017.36 1017.72 1018.03 1018.27 1018.46 1018.59 1018.66 1018.68 1018.65 1018.59 1018.49 1018.36 1018.22 1018.09 1017.99 1017.95 1017.97 1018.07 1018.23 1018.45 1018.69 1018.92 1019.11 1019.24 1019.28 1019.24 1019.13
1012.72 1012.64 1012.64 1012.73 1012.87 1013.06 1013.26 1013.48 1013.71 1013.96 1014.23 1014.53 1014.87 1015.24 1015.64 1016.04 1016.45 1016.85 1017.21 1017.55 1017.84 1018.10 1018.30 1018.47 1018.57 1018.62 1018.61 1018.55 1018.45 1018.33 1018.21 1018.13 1018.11 1018.16 1018.28 1018.45 1018.66 1018.87 1019.05 1019.16 1019.20 1019.15 1019.03
1012.41 1012.29 1012.23 1012.25 1012.33 1012.45 1012.59 1012.75 1012.93 1013.13 1013.35 1013.60 1013.89 1014.22 1014.58 1014.97 1015.37 1015.79 1016.21 1016.62 1017.03 1017.42 1017.78 1018.10 1018.37 1018.56 1018.68 1018.72 1018.69 1018.61 1018.52 1018.43 1018.38 1018.39 1018.46 1018.59 1018.75 1018.93 1019.08 1019.18 1019.21 1019.16 1019.03
1012.27 1012.09 1011.97 1011.91 1011.90 1011.93 1011.98 1012.06 1012.16 1012.29 1012.44 1012.63 1012.86 1013.13 1013.44 1013.79 1014.19 1014.61 1015.07 1015.56 1016.07 1016.58 1017.09 1017.58 1018.01 1018.37 1018.63 1018.80 1018.88 1018.88 1018.83 1018.76 1018.70 1018.69 1018.72 1018.81 1018.94 1019.08 1019.21 1019.29 1019.32 1019.26 1019.14
1012.32 1012.08 1011.88 1011.73 1011.62 1011.54 1011.50 1011.48 1011.48 1011.52 1011.59 1011.70 1011.86 1012.07 1012.33 1012.64 1013.01 1013.44 1013.92 1014.46 1015.04 1015.66 1016.30 1016.93 1017.52 1018.03 1018.45 1018.76 1018.96 1019.06 1019.08 1019.06 1019.03 1019.01 1019.03 1019.10 1019.19 1019.31 1019.41 1019.48 1019.50 1019.45 1019.33
1012.54 1012.25 1011.98 1011.74 1011.53 1011.35 1011.20 1011.07 1010.98 1010.92 1010.91 1010.95 1011.04 1011.19 1011.40 1011.67 1012.00 1012.41 1012.90 1013.46 1014.09 1014.78 1015.51 1016.25 1016.96 1017.61 1018.17 1018.61 1018.94 1019.15 1019.26 1019.31 1019.32 1019.33 1019.35 1019.41 1019.49 1019.58 1019.67 1019.73 1019.74 1019.69 1019.57
1012.91 1012.58 1012.26 1011.96 1011.66 1011.39 1011.14 1010.92 1010.73 1010.59 1010.51 1010.48 1010.52 1010.62 1010.78 1011.01 1011.31 1011.70 1012.16 1012.72 1013.36 1014.08 1014.85 1015.65 1016.44 1017.19 1017.85 1018.41 1018.85 1019.16 1019.37 1019.50 1019.57 1019.62 1019.67 1019.73 1019.80 1019.88 1019.96 1020.00 1020.00 1019.95 1019.84
1013.39 1013.05 1012.71 1012.36 1012.01 1011.67 1011.35 1011.06 1010.81 1010.61 1010.47 1010.40 1010.40 1010.46 1010.59 1010.79 1011.06 1011.41 1011.85 1012.38 1012.99 1013.70 1014.46 1015.28 1016.10 1016.89 1017.62 1018.25 1018.77 1019.17 1019.47 1019.67 1019.80 1019.89 1019.97 1020.04 1020.11 1020.19 1020.24 1020.28 1020.26 1020.20 1020.08
1013.94 1013.63 1013.29 1012.93 1012.57 1012.20 1011.84 1011.50 1011.22 1010.99 1010.82 1010.73 1010.71 1010.77 1010.88 1011.06 1011.31 1011.63 1012.02 1012.50 1013.07 1013.73 1014.45 1015.23 1016.04 1016.83 1017.57 1018.24 1018.80 1019.26 1019.61 1019.86 1020.04 1020.17 1020.27 1020.35 1020.42 1020.48 1020.52 1020.53 1020.50 1020.42 1020.28
1014.54 1014.28 1013.98 1013.66 1013.30 1012.94 1012.57 1012.24 1011.94 1011.71 1011.55 1011.46 1011.46 1011.51 1011.63 1011.81 1012.04 1012.34 1012.69 1013.12 1013.63 1014.21 1014.87 1015.58 1016.33 1017.07 1017.79 1018.44 1019.01 1019.48 1019.85 1020.13 1020.33 1020.47 1020.58 1020.66 1020.72 1020.76 1020.78 1020.76 1020.70 1020.59 1020.43
1015.18 1015.00 1014.77 1014.49 1014.18 1013.85 1013.51 1013.19 1012.92 1012.71 1012.57 1012.51 1012.53 1012.61 1012.75 1012.94 1013.17 1013.44 1013.76 1014.14 1014.59 1015.10 1015.67 1016.30 1016.96 1017.63 1018.28 1018.88 1019.41 1019.85 1020.21 1020.48 1020.68 1020.82 1020.91 1020.98 1021.02 1021.03 1021.02 1020.97 1020.87 1020.73 1020.53
1015.87 1015.77 1015.62 1015.41 1015.15 1014.86 1014.57 1014.29 1014.05 1013.88 1013.78 1013.76 1013.81 1013.92 1014.09 1014.30 1014.53 1014.80 1015.10 1015.44 1015.83 1016.27 1016.76 1017.30 1017.87 1018.44 1019.00 1019.52 1019.98 1020.37 1020.68 1020.91 1021.07 1021.19 1021.26 1021.30 1021.31 1021.29 1021.25 1021.16 1021.03 1020.85 1020.62
Thickness
5746 5744 5744 5743 5742 5741 5739 5738 5736 5735 5734 5733 5732 5731 5730 5729 5728 5727 5726 5725 5724 5723 5721 5720 5719 5718 5717 5715 5714 5713 5712 5711 5709 5708 5707 5706 5705 5704 5703 5702 5701 5700 5699
5745 5744 5743 5743 5742 5741 5739 5738 5736 5735 5734 5733 5732 5732 5731 5729 5728 5727 5726 5725 5724 5723 5722 5721 5720 5719 5717 5716 5715 5713 5712 5711 5710 5709 5708 5707 5706 5704 5703 5702 5701 5700 5699
5745 5744 5743 5742 5742 5741 5740 5738 5736 5735 5734 5733 5732 5732 5731 5730 5729 5728 5727 5726 5725 5724 5723 5722 5720 5719 5718 5717 5716 5714 5713 5712 5710 5709 5708 5707 5706 5705 5703 5702 5701 5700 5699
5744 5743 5742 5742 5742 5741 5739 5738 5737 5734 5733 5733 5732 5732 5732 5731 5730 5729 5728 5727 5726 5725 5724 5723 5722 5720 5719 5718 5717 5716 5714 5713 5711 5710 5709 5708 5707 5705 5704 5703 5701 5700 5699
5744 5743 5743 5743 5742 5741 5739 5739 5737 5735 5733 5732 5732 5732 5732 5731 5731 5730 5729 5729 5728 5726 5725 5724 5723 5722 5721 5719 5718 5717 5716 5714 5713 5712 5710 5709 5708 5706 5705 5703 5702 5701 5699
5746 5744 5743 5743 5742 5740 5739 5738 5736 5736 5734 5733 5733 5732 5731 5731 5731 5731 5730 5730 5729 5728 5727 5725 5724 5723 5722 5721 5720 5719 5718 5716 5715 5713 5712 5710 5709 5707 5706 5705 5703 5702 5701
5746 5745 5743 5743 5742 5740 5740 5739 5736 5734 5733 5733 5729 5727 5729 5731 5731 5731 5731 5731 5731 5730 5729 5727 5726 5724 5724 5723 5722 5721 5720 5718 5717 5715 5714 5712 5711 5709 5708 5706 5705 5704 5702
5746 5745 5743 5743 5742 5740 5739 5738 5736 5734 5733 5732 5728 5723 5721 5724 5730 5733 5733 5732 5732 5731 5730 5729 5728 5726 5725 5724 5724 5723 5721 5720 5719 5717 5716 5714 5713 5711 5710 5708 5707 5705 5704
5747 5746 5745 5744 5742 5741 5739 5738 5737 5734 5731 5731 5731 5726 5719 5718 5724 5730 5732 5733 5732 5732 5731 5731 5730 5729 5727 5726 5725 5725 5724 5723 5721 5720 5718 5717 5715 5713 5712 5710 5709 5707 5706
5747 5746 5745 5744 5743 5742 5740 5739 5738 5736 5733 5729 5729 5729 5728 5726 5721 5722 5728 5731 5732 5732 5732 5732 5732 5731 5730 5728 5727 5727 5726 5724 5723 5721 5720 5718 5717 5715 5713 5712 5710 5709 5707
5746 5745 5744 5744 5743 5742 5741 5739 5738 5736 5734 5732 5729 5728 5726 5724 5724 5721 5720 5725 5728 5732 5733 5733 5733 5732 5731 5730 5729 5728 5727 5726 5725 5723 5722 5720 5718 5716 5715 5713 5712 5710 5708
5745 5744 5744 5743 5742 5741 5740 5739 5737 5736 5734 5733 5731 5729 5727 5724 5722 5721 5720 5721 5723 5728 5731 5732 5732 5732 5732 5731 5730 5730 5729 5727 5725 5724 5722 5721 5719 5718 5716 5714 5712 5711 5709
5742 5743 5743 5742 5742 5741 5740 5738 5736 5735 5734 5733 5731 5730 5729 5728 5727 5725 5721 5721 5721 5725 5728 5730 5731 5731 5731 5730 5730 5730 5728 5727 5726 5724 5722 5721 5719 5718 5716 5714 5712 5710 5708
5743 5744 5743 5742 5742 5740 5739 5737 5735 5734 5734 5733 5732 5730 5729 5729 5728 5726 5724 5720 5717 5719 5722 5725 5728 5728 5728 5728 5728 5727 5726 5725 5724 5723 5721 5719 5717 5716 5714 5712 5710 5708 5706
5743 5742 5742 5741 5740 5739 5737 5735 5734 5733 5732 5732 5731 5729 5729 5729 5728 5727 5725 5723 5718 5714 5717 5721 5722 5725 5724 5724 5724 5723 5722 5722 5721 5719 5718 5716 5715 5713 5711 5709 5707 5705 5703
5742 5742 5740 5739 5738 5737 5735 5734 5732 5731 5730 5729 5729 5728 5727 5727 5726 5725 5723 5722 5720 5717 5715 5719 5719 5720 5719 5720 5719 5719 5718 5717 5716 5715 5713 5712 5711 5709 5706 5704 5702 5700 5698
5741 5740 5738 5737 5736 5735 5734 5731 5730 5728 5727 5726 5726 5725 5724 5724 5723 5722 5721 5719 5717 5715 5713 5714 5715 5715 5714 5714 5714 5714 5713 5712 5711 5709 5708 5707 5705 5703 5701 5699 5697 5695 5693
5739 5738 5736 5734 5733 5732 5731 5729 5727 5726 5725 5724 5723 5722 5721 5721 5719 5719 5717 5716 5714 5713 5710 5708 5709 5709 5709 5709 5708 5707 5706 5705 5704 5703 5702 5701 5699 5697 5695 5693 5691 5689 5687
5735 5734 5732 5730 5729 5728 5727 5726 5724 5723 5722 5721 5720 5718 5718 5716 5715 5714 5713 5711 5710 5710 5707 5704 5703 5703 5702 5702 5700 5699 5698 5697 5697 5695 5694 5692 5691 5689 5687 5685 5683 5681 5679
5731 5729 5728 5727 5725 5724 5723 5721 5720 5719 5717 5716 5715 5713 5713 5712 5710 5709 5708 5706 5705 5702 5700 5698 5696 5695 5693 5693 5691 5689 5688 5687 5686 5685 5683 5682 5681 5680 5677 5675 5674 5672 5670
5726 5724 5723 5722 5720 5719 5718 5716 5715 5713 5712 5710 5708 5707 5707 5706 5705 5703 5702 5700 5698 5695 5693 5690 5688 5686 5685 5683 5681 5680 5678 5677 5675 5674 5672 5671 5670 5669 5666 5664 5663 5661 5660
5720 5718 5717 5715 5713 5713 5712 5711 5709 5707 5705 5703 5701 5700 5699 5698 5697 5696 5694 5693 5691 5688 5686 5683 5680 5678 5676 5674 5673 5671 5669 5667 5664 5663 5661 5660 5659 5657 5655 5652 5651 5649 5647
5714 5712 5710 5709 5707 5705 5704 5703 5701 5699 5697 5695 5693 5692 5691 5690 5689 5687 5685 5684 5681 5679 5678 5675 5672 5669 5667 5666 5664 5662 5659 5657 5654 5652 5650 5649 5647 5645 5643 5640 5639 5637 5635
5708 5705 5703 5701 5699 5697 5696 5696 5694 5692 5689 5686 5684 5683 5682 5680 5679 5678 5676 5673 5670 5668 5667 5665 5662 5660 5658 5656 5655 5653 5650 5646 5644 5642 5640 5637 5635 5633 5631 5629 5626 5624 5622
5700 5697 5695 5693 5691 5689 5688 5687 5686 5683 5680 5677 5675 5674 5673 5671 5668 5667 5666 5662 5659 5657 5655 5653 5651 5649 5647 5645 5644 5642 5639 5637 5634 5631 5627 5625 5623 5620 5619 5617 5614 5611 5609
5693 5690 5687 5684 5682 5680 5679 5678 5677 5675 5671 5668 5665 5663 5661 5660 5658 5656 5655 5652 5649 5645 5644 5642 5640 5638 5635 5633 5631 5629 5627 5625 5622 5619 5616 5612 5610 5607 5605 5603 5600 5598 5595